Tracking 34800 objects as of 17-Jul-2026
HD Live streaming from Space Station
objects crossing your sky now

METEOR 1-10 DEB

Track METEOR 1-10 DEB now!
10-day predictions


NORAD ID: 8826
Int'l Code: 1971-120C
Perigee: 604.8 km
Apogee: 621.5 km
Inclination: 81.2 °
Period: 96.8 minutes
Semi major axis: 6984 km
RCS: 0.6193 m2 (medium)
Launch date: December 29, 1971
Source: Commonwealth of Independent States (former USSR) (CIS)
Launch site: PLESETSK MISSILE AND SPACE COMPLEX (PKMTR)

Note: This is SATELLITE DEBRIS
Your satellite tracking list
Your tracking list is empty




NASA's NSSDC Master Catalog

Two Line Element Set (TLE):
1  8826U 71120C   26198.60116053  .00001497  00000-0  16332-3 0  9992
2  8826  81.2267 265.9534 0011931  11.7587 348.3902 14.87410288854885
Source of the keplerian elements: AFSPC